Regional Weather Roundup
Issued by NWS Green Bay, WI

Home | Current Version | Previous Version | Text Only | Print | Product List | Glossary On
Versions: 1 2 3 4 5 6 7 8 9 10 11 12 13 14 15 16 17 18 19 20 21 22 23 24 25 26 27 28 29 30 31 32 33 34 35 36 37 38 39 40 41 42 43 44 45 46 47 48 49 50
000
ASUS43 KGRB 240500
RWRGRB

NORTH-CENTRAL AND NORTHEAST WISCONSIN REGIONAL WEATHER ROUNDUP
NATIONAL WEATHER SERVICE GREEN BAY WI
1200 AM CDT SUN MAY 24 2015

WIZ005-009-010>012-018-019-240600-
NORTH CENTRAL WISCONSIN

CITY           SKY/WX    TMP DP  RH WIND       PRES   REMARKS
IRONWOOD       CLEAR     50  43  76 CALM      30.15R
MANITOWISH WTR NOT AVBL
ARBOR VITAE    NOT AVBL
EAGLE RIVER    NOT AVBL
LAND O LAKES   NOT AVBL
RHINELANDER    CLOUDY    58  45  62 CALM      30.20S
PHILLIPS       CLOUDY    56  47  71 CALM      30.18S
ANTIGO         NOT AVBL
TOMAHAWK       CLOUDY    54  47  77 CALM      30.19F
MERRILL        NOT AVBL
$$

WIZ013-073-240600-
NORTHEAST WISCONSIN

CITY           SKY/WX    TMP DP  RH WIND       PRES   REMARKS
IRON MOUNTAIN  MOCLDY    59  42  53 CALM      30.17R
MARINETTE      CLOUDY    63  41  45 SW7       30.17S
OCONTO         CLOUDY    56  49  78 CALM      30.17S
$$

WIZ017-030-035>037-045-240600-
CENTRAL WISCONSIN

CITY           SKY/WX    TMP DP  RH WIND       PRES   REMARKS
MEDFORD        NOT AVBL
WAUSAU         CLOUDY    59  48  67 NW3       30.17S
MOSINEE        CLOUDY    61  43  51 NE3       30.19S
MARSHFIELD     CLOUDY    63  44  50 CALM      30.18S
WISC RAPIDS    CLOUDY    58  44  60 CALM      30.18F
STEVENS POINT  NOT AVBL
WAUPACA        NOT AVBL
SHAWANO        MOCLDY    62  44  52 CALM      30.18S
CLINTONVILLE   MOCLDY    57  46  67 CALM      30.18S
$$

WIZ038-039-048-051-240600-
FOX VALLEY

CITY           SKY/WX    TMP DP  RH WIND       PRES   REMARKS
NWS GREEN BAY  MOCLDY    64  42  44 S6        30.18F
APPLETON       NOT AVBL
OSHKOSH        PTCLDY    57  44  62 S8        30.18S
FOND DU LAC    PTCLDY    59  43  55 S3        30.19S
$$

WIZ022-050-052-240600-
EAST CENTRAL WISCONSIN

CITY           SKY/WX    TMP DP  RH WIND       PRES   REMARKS
STURGEON BAY   CLOUDY    61  39  44 S9        30.21R
MANITOWOC      NOT AVBL
SHEBOYGAN      PTCLDY    52  40  63 SW3       30.20F
$$

LMZ563-521-522-541>543-240600-
LAKESHORE

STATION/POSITION TIME  TEMP    WIND        PRES    VSBY  WAVE
                       AIR SEA DIR/SP/G                  HT/PER
                 (UTC) (F)     (DEG/KT/KT) (MB)    (MI)  (FT/S)
SHEBOYGAN LKSHOR 0400   57     210/  5/  6 1023.3R
KEWAUNEE LKSHORE 0400   59     190/  8/ 10 1021.5R
NORTHPORT PIER   0400   65     190/  6/ 15 1021.3S
N MID LAKE BUOY  0350   42 36  210/ 10/ 12 1022.1S         2/ 4
SISTER BAY LKSHO 0417   64     200/ 18/ 20   N/A
CHAMBERS ISLAND  0400   63     170/  6/ 11 1022.0R
MENOMINEE LKSHOR 0400   64     170/  7/  8 1022.2S
$$


USA.gov is the U.S. government's official web portal to all federal, state and local government web resources and services.